Regional Weather Roundup
Issued by NWS

Current Version | Previous Version | Text Only | Print | Product List | Glossary On
Versions: 1 2 3 4 5 6 7 8 9 10 11 12 13 14 15 16 17 18 19 20 21 22 23 24 25 26 27 28 29 30 31 32 33 34 35 36 37 38 39 40 41 42 43 44 45 46 47 48 49 50
000
ASUS43 KBIS 221620
RWRND

NORTH DAKOTA REGIONAL WEATHER ROUNDUP
NATIONAL WEATHER SERVICE BISMARCK ND
1000 AM CST MON DEC 22 2014

NOTE: "FAIR" INDICATES FEW OR NO CLOUDS BELOW 12,000 FEET WITH NO
SIGNIFICANT WEATHER AND/OR OBSTRUCTIONS TO VISIBILITY.


NDZ001>003-009>011-017-221700-
NORTHWEST NORTH DAKOTA

CITY           SKY/WX    TMP DP  RH WIND       PRES   REMARKS
WILLISTON      CLOUDY    27  22  81 NW20G25   29.57R WCI  13
MINOT          CLOUDY    28  26  92 NE7       29.52R FOG
$$

NDZ018>021-031>035-040>046-221700-
SOUTHWEST NORTH DAKOTA

CITY           SKY/WX    TMP DP  RH WIND       PRES   REMARKS
BISMARCK       CLOUDY    29  28  96 N6        29.50R
DICKINSON      CLOUDY    27  23  85 NW18      29.48R WCI  14
GARRISON         N/A     29  27  92 N5        29.49R
HETTINGER ARPT LGT SNOW  30  27  88 NW23G31   29.50R FOG     WCI  17
$$

NDZ004>008-012>016-024-026-027-054-221700-
NORTHEAST NORTH DAKOTA

CITY           SKY/WX    TMP DP  RH WIND       PRES   REMARKS
GRAND FORKS    CLOUDY    35  35 100 E12       29.54R
DEVILS LAKE    CLOUDY    32  27  80 NE8       29.50R
$$

NDZ022-023-025-028>030-036>039-047>053-221700-
SOUTHEAST NORTH DAKOTA

CITY           SKY/WX    TMP DP  RH WIND       PRES   REMARKS
FARGO          LGT RAIN  37  36  96 E6        29.51R FOG
JAMESTOWN      FOG       33  32  96 NE7       29.46R VSB 1/4
$$




USA.gov is the U.S. government's official web portal to all federal, state and local government web resources and services.